Location: Barrio de Canyet
(41.4665°N, 2.2381°E)
Time: 09:14:59
(UTC+00:00)

Resurs 01 Rocket - Pass Details

Date: 09 April 2020
Orbit: 634 x 644 km, 98.0° (Epoch: 03 June)

Event Time Altitude Azimuth Distance (km) Brightness Sun altitude
Exits shadow 20:55:17 38° 233° (SW) 971 2.6 -26.0°
Maximum altitude 20:56:05 42° 261° (W) 910 2.6 -26.2°
Drops below altitude 10° 21:00:17 10° 333° (NNW) 2,032 5.0 -26.8°
Sets 21:02:36 0° 340° (NNW) 2,947 6.0 -27.1°
